Temperature
14 14 14 13 13 13 13 12 12 12 12 12 12 12 12 12 12 12 12 12 12 12 13 13 13 13 14 14 14 14 15 15 15 15 16 16 16 16 17 17 16 17 17
15 14 14 14 13 13 13 13 12 12 12 12 12 12 12 12 11 11 11 11 12 12 12 12 13 13 13 13 14 14 14 14 15 15 16 16 16 16 16 16 16 16 16
15 14 14 14 13 13 13 13 12 12 12 12 12 12 11 11 11 11 11 11 11 12 12 12 12 13 13 13 13 13 14 14 14 14 15 15 15 15 15 15 16 16 16
15 15 14 14 13 13 13 12 12 12 11 11 11 11 11 11 11 11 11 11 11 11 12 12 12 12 12 13 13 13 13 13 14 14 14 14 15 15 15 15 15 15 15
15 15 14 14 13 13 13 12 12 12 11 11 11 11 11 11 11 11 11 11 11 11 11 11 12 12 12 12 13 13 13 13 13 13 14 14 14 14 15 15 15 15 15
16 15 15 14 14 13 13 12 12 12 11 11 11 11 11 10 10 10 11 11 11 11 11 11 11 12 12 12 12 12 12 13 13 13 13 13 14 14 14 14 14 14 14
16 16 15 15 14 14 13 13 12 12 12 12 11 11 11 11 11 10 10 11 11 11 11 11 11 11 11 12 12 12 12 12 12 12 13 13 13 14 14 14 14 14 14
17 17 16 15 15 14 13 13 13 12 12 12 11 11 11 11 11 11 11 11 11 11 11 11 11 11 11 12 12 12 12 12 12 12 12 13 13 13 13 14 14 14 14
18 17 16 16 15 14 14 13 13 13 12 12 12 11 11 11 11 11 11 11 11 11 11 11 11 11 11 11 12 12 12 12 12 12 12 13 13 13 13 13 13 13 13
18 17 17 16 15 15 14 14 14 13 13 13 12 12 12 11 11 11 11 11 11 11 11 11 11 11 11 11 12 12 12 12 12 12 12 12 13 13 13 13 13 13 13
18 17 17 16 15 15 15 15 14 14 13 13 13 12 12 12 12 11 11 11 11 11 11 11 11 11 11 11 12 12 12 12 12 12 12 12 12 12 12 13 13 13 13
17 17 16 16 16 15 15 15 14 14 13 13 13 13 12 12 12 12 11 11 11 11 11 11 11 11 11 11 12 12 11 11 12 12 12 12 12 12 12 12 12 12 12
17 16 16 16 15 15 15 15 15 14 14 13 13 13 13 13 12 12 12 11 11 11 11 11 11 11 11 12 12 11 11 11 11 11 11 12 12 12 12 12 12 12 12
16 16 15 15 15 15 15 15 15 15 14 14 13 13 13 13 12 12 12 12 11 11 11 11 11 11 11 11 12 11 11 11 11 11 11 11 11 12 12 11 11 12 11
15 15 14 15 15 15 15 15 15 15 15 15 14 14 14 13 13 13 12 12 12 11 11 11 12 12 11 11 11 11 11 11 11 11 11 11 11 11 11 11 11 11 11
14 13 13 14 14 14 14 15 15 15 15 15 14 14 14 14 13 13 13 12 12 12 11 12 12 12 11 11 11 11 11 11 11 11 11 11 11 11 11 11 11 11 11
12 12 12 12 12 13 13 13 13 14 14 14 14 14 14 14 14 13 13 12 12 12 12 12 12 12 11 11 11 11 11 11 11 11 11 11 11 11 11 11 11 11 11
11 11 11 11 11 12 12 12 12 13 13 14 14 14 14 14 14 13 13 12 12 12 12 12 12 12 11 11 11 11 11 11 11 11 11 11 11 11 11 11 11 10 10
10 10 10 10 10 10 11 11 11 12 12 13 13 13 13 13 13 13 13 13 13 12 12 12 11 11 11 11 11 11 11 11 11 11 11 11 11 11 11 11 10 10 10
9 9 9 9 9 9 10 10 10 11 11 11 12 12 12 12 12 13 13 12 12 12 12 12 11 11 11 11 11 11 11 11 11 11 11 11 11 11 11 11 10 10 10
8 8 8 8 8 8 8 9 9 9 9 10 10 10 11 11 11 11 11 12 12 12 12 12 12 11 11 11 11 11 11 11 11 11 11 11 11 11 11 11 11 10 10
7 7 7 7 7 7 8 8 8 8 8 8 8 9 9 10 10 10 10 10 10 11 11 11 11 11 11 11 11 11 11 11 11 11 11 11 11 11 11 11 10 10 10
7 7 7 7 7 7 7 7 7 7 7 7 7 7 8 8 8 8 8 9 9 10 10 10 10 11 11 11 11 11 11 11 11 11 11 11 11 11 11 11 11 10 10
6 6 6 6 6 6 6 6 6 6 6 6 6 6 6 6 6 7 7 7 8 8 9 9 9 9 10 10 10 10 10 11 11 11 11 11 11 11 11 11 11 11 10
6 6 6 6 6 6 6 6 6 6 6 5 5 5 5 5 5 6 6 6 6 7 7 8 8 8 8 9 9 9 10 10 10 10 10 11 11 11 11 11 11 11 10
6 6 6 6 6 6 6 5 5 5 5 5 5 5 5 5 5 5 5 5 5 5 6 6 7 7 7 8 8 8 9 9 9 10 10 10 10 11 11 11 11 11 10
Wind_Speed
1 2 3 2 2 4 4 2 4 5 6 7 6 6 6 5 6 6 6 6 7 7 7 6 6 5 4 4 4 5 5 5 6 5 4 4 6 6 6 8 10 11 16
1 2 4 3 3 4 4 4 5 6 6 7 7 6 6 6 6 7 7 8 7 7 7 7 6 5 5 4 4 5 5 5 6 7 4 4 6 6 6 7 6 8 10
2 2 5 4 3 3 5 5 6 6 6 7 7 7 7 6 6 7 7 8 8 8 7 7 6 6 5 3 4 4 4 5 4 5 5 4 4 4 4 5 5 5 6
1 2 3 4 4 3 4 4 5 6 6 6 6 6 6 6 5 6 8 9 9 9 8 7 6 4 4 4 4 4 4 4 4 4 5 4 4 4 4 4 5 5 5
2 3 2 2 3 2 3 4 4 5 7 6 6 6 6 6 5 6 7 9 9 9 9 8 6 5 4 4 4 4 4 3 4 4 4 4 4 4 5 5 6 5 5
3 4 3 1 2 2 4 3 4 5 6 5 5 6 6 5 3 5 6 7 8 9 9 8 7 6 5 5 7 7 6 5 5 4 4 5 6 6 5 6 6 5 4
4 3 3 2 0 2 4 4 5 6 5 4 5 5 5 5 4 5 8 7 8 8 8 7 7 7 6 5 6 7 8 10 10 6 6 7 6 5 6 6 6 6 5
5 4 3 4 4 4 4 5 6 4 4 4 5 5 5 6 4 4 8 8 8 8 7 5 5 5 4 5 6 7 6 6 6 6 7 7 5 4 5 6 6 5 3
3 3 3 3 4 4 5 5 5 4 4 5 5 5 6 5 3 3 5 6 6 7 6 5 5 4 5 7 6 7 7 6 6 7 8 8 8 8 5 4 5 5 4
2 3 3 3 3 5 6 6 5 4 5 5 6 6 6 5 5 4 3 4 6 6 6 5 3 4 5 6 5 6 6 6 6 6 6 7 7 7 9 8 7 6 4
1 1 1 3 5 6 6 6 5 5 6 6 7 7 7 6 6 7 5 3 4 6 5 5 3 4 6 7 7 5 7 7 6 6 5 4 4 3 4 4 5 6 6
1 2 4 5 6 7 7 7 7 6 7 7 7 7 6 5 6 8 9 7 6 5 6 5 4 7 9 10 7 7 9 8 5 4 4 3 2 2 2 3 3 3 4
5 5 6 7 8 8 8 7 7 7 6 6 6 6 5 4 5 10 10 10 10 6 6 9 11 13 12 9 8 8 7 4 3 3 3 2 1 1 2 2 3 4 4
7 7 6 6 7 7 6 7 6 6 6 6 6 5 5 4 3 4 4 5 7 7 6 7 10 12 10 9 8 6 4 3 2 2 2 1 1 1 1 2 2 3 3
8 7 7 7 7 6 6 5 7 7 7 7 6 5 5 5 3 4 3 2 1 1 4 5 6 6 4 4 4 3 2 2 2 1 1 1 0 1 1 1 2 2 3
8 8 7 7 7 7 7 7 9 10 12 14 13 10 7 8 7 9 8 7 5 4 3 5 6 6 6 5 4 3 3 2 2 2 1 1 1 2 2 1 2 3 4
8 7 7 7 8 8 8 7 8 8 11 12 13 13 13 12 11 11 9 7 7 5 4 6 7 7 6 5 5 4 4 4 3 3 2 2 2 2 2 3 3 4 4
8 8 8 7 8 8 8 8 7 7 7 6 9 14 15 15 14 11 8 4 5 6 6 8 8 7 6 6 5 4 4 4 4 4 3 3 3 3 3 3 4 4 5
7 6 6 7 7 7 7 8 8 8 7 7 6 5 9 10 9 8 7 5 7 7 7 8 8 7 6 6 5 5 5 5 5 5 4 4 4 4 4 4 4 7 5
6 9 9 7 7 7 8 8 8 9 9 8 8 7 6 2 2 3 5 7 8 8 8 8 7 7 6 6 6 5 5 5 6 6 5 6 5 5 5 5 6 6 5
6 8 11 8 7 8 8 8 8 9 9 9 10 11 13 6 5 5 4 5 7 8 8 8 8 7 6 6 5 6 7 6 6 6 6 6 6 6 5 6 6 6 6
6 6 6 6 6 7 8 7 8 8 10 10 10 11 15 10 9 9 8 8 7 6 6 6 6 5 6 6 6 6 7 7 7 7 7 7 7 7 6 7 7 6 6
6 6 6 6 6 8 7 7 7 7 8 8 9 9 10 10 11 11 11 11 10 10 10 9 7 5 5 5 6 7 8 8 7 8 8 8 8 8 8 8 9 8 8
6 6 6 6 5 6 6 6 6 7 7 8 8 8 8 9 9 11 11 11 12 12 11 11 11 14 13 8 5 6 7 8 8 8 10 10 10 9 9 8 9 10 10
6 6 5 5 5 5 6 6 6 6 6 6 7 7 7 8 8 9 9 9 11 12 14 14 11 13 18 18 13 9 9 11 12 8 8 8 10 11 10 10 9 9 8
7 6 5 5 5 5 6 6 6 7 6 6 6 6 6 7 7 8 8 8 9 10 11 11 14 17 18 14 17 19 17 14 13 14 10 7 9 10 10 10 12 11 11
Wind_Direction
341 328 307 290 291 293 293 322 313 315 334 339 336 327 331 347 359 356 339 332 327 319 316 312 307 293 275 261 253 246 238 222 233 247 235 223 208 210 195 200 204 192 199
129 319 300 299 295 314 336 351 339 335 335 328 328 331 341 357 1 349 338 336 327 322 315 315 312 307 292 278 266 255 248 235 225 239 238 222 217 209 200 201 201 201 195
154 273 295 311 328 341 336 1 340 334 333 327 332 342 347 352 356 350 350 342 332 321 315 315 311 313 309 301 292 274 262 256 240 236 239 226 218 206 204 209 207 202 202
168 252 292 326 338 349 349 338 328 326 322 323 339 340 342 345 354 3 354 334 323 319 317 312 310 315 316 319 309 303 293 275 261 247 240 230 218 204 193 200 210 207 207
213 244 253 289 306 322 315 312 322 326 327 335 341 335 340 335 10 13 344 327 322 317 314 313 317 310 298 291 296 306 310 289 269 255 247 238 220 201 204 198 204 202 210
204 222 208 217 318 341 314 319 322 313 303 313 323 324 325 332 359 346 333 319 311 309 312 316 314 294 296 288 275 269 262 264 265 259 257 245 234 220 204 198 198 197 213
221 213 177 167 247 295 301 305 292 284 288 301 299 304 309 310 285 308 325 315 296 296 302 306 314 321 342 336 320 295 272 256 245 247 257 254 248 231 209 204 205 203 210
211 187 171 178 205 236 258 270 274 275 293 296 291 288 290 294 270 293 322 307 296 296 296 302 308 326 1 357 329 311 293 280 258 244 247 255 256 247 219 208 205 211 207
180 163 195 207 211 223 247 264 271 272 276 282 286 280 279 279 227 258 318 306 303 307 314 330 333 333 356 350 321 306 307 301 286 268 259 260 259 247 219 190 188 189 203
188 172 192 210 232 238 243 252 262 268 266 271 275 268 264 267 207 212 285 299 308 315 318 321 335 342 339 337 317 308 309 310 316 301 278 263 252 234 217 207 197 192 184
100 129 228 242 245 244 241 243 254 262 265 267 274 271 260 249 210 203 216 258 297 310 312 316 322 338 327 319 312 293 290 299 300 295 281 268 245 221 207 202 199 189 180
346 244 247 250 254 260 240 234 238 251 262 265 265 267 258 239 203 204 212 231 256 277 290 297 306 316 312 307 300 290 296 301 287 288 289 275 251 225 195 182 175 170 168
304 270 253 249 245 242 240 236 234 236 242 253 256 259 260 246 200 201 213 232 245 251 271 286 294 295 297 295 284 289 297 288 286 289 293 290 290 211 139 130 120 121 114
311 298 286 276 269 256 241 231 231 234 239 247 253 258 258 251 227 192 204 231 247 258 275 291 294 281 270 269 281 281 269 264 272 274 278 291 317 101 121 129 138 139 132
322 316 312 303 296 289 276 251 241 235 231 233 240 244 255 261 229 186 183 222 269 335 326 300 289 285 273 256 256 253 253 278 278 280 271 277 229 136 126 127 146 149 152
339 334 331 326 319 312 303 295 267 256 256 246 239 239 247 246 213 206 215 226 242 269 295 280 282 280 275 269 256 250 234 234 233 230 226 228 209 176 161 156 155 155 151
337 342 341 333 327 322 317 311 305 294 273 264 256 250 245 249 239 227 228 234 249 245 247 261 266 268 267 263 253 242 230 220 208 199 205 214 200 188 180 171 163 157 153
343 354 352 333 324 320 318 315 311 308 305 295 266 252 248 247 244 237 226 223 255 231 233 248 255 256 257 255 249 243 232 214 200 198 198 202 197 194 185 178 169 163 158
344 352 342 325 321 325 328 325 321 319 317 314 315 301 263 256 254 242 201 215 243 250 246 245 246 244 246 247 243 236 228 215 205 199 196 196 197 191 187 178 167 162 156
335 348 349 335 341 351 348 343 342 343 343 342 341 345 358 346 269 239 216 226 238 247 251 255 254 248 242 242 239 233 233 223 212 208 202 198 196 190 185 176 169 171 172
339 348 353 352 356 358 351 347 350 353 354 353 349 349 356 350 325 303 272 244 243 247 250 250 248 244 237 236 237 233 233 232 220 210 204 199 194 192 187 181 176 176 175
340 348 349 351 352 354 347 349 355 356 356 356 352 354 358 360 354 351 347 340 326 300 277 263 252 241 230 226 226 232 237 236 228 215 208 199 194 192 187 184 183 181 179
337 342 343 345 346 347 348 348 350 351 351 352 353 356 359 359 357 355 351 347 346 345 345 336 313 285 260 238 228 227 234 240 236 223 211 204 198 195 192 190 189 185 185
328 332 334 335 337 338 337 339 341 344 345 346 349 351 352 350 348 348 349 352 352 349 347 345 344 339 330 312 277 249 240 243 244 239 225 213 205 200 196 195 192 190 188
317 320 321 323 326 326 326 326 328 332 335 336 338 340 340 339 339 339 340 343 345 343 343 342 340 340 338 336 334 326 305 273 260 254 244 226 215 206 200 197 194 190 187
305 308 311 314 315 316 316 316 316 319 319 321 323 324 323 324 324 326 328 333 336 334 333 334 333 334 332 337 340 339 337 324 298 270 253 242 227 219 208 202 197 194 191
Height
1516 1514 1513 1511 1509 1508 1506 1504 1502 1500 1499 1497 1495 1493 1492 1490 1488 1485 1483 1482 1480 1479 1478 1477 1476 1475 1475 1475 1475 1475 1476 1477 1477 1478 1480 1482 1483 1485 1487 1490 1492 1495 1498
1514 1513 1512 1511 1509 1507 1505 1503 1501 1499 1497 1496 1494 1492 1491 1488 1486 1484 1482 1480 1478 1477 1476 1474 1473 1472 1472 1471 1471 1471 1471 1472 1473 1473 1474 1476 1478 1480 1482 1484 1486 1489 1491
1513 1512 1511 1510 1508 1506 1504 1502 1500 1498 1496 1494 1493 1491 1489 1486 1484 1482 1480 1478 1476 1475 1473 1472 1470 1469 1468 1468 1467 1467 1467 1468 1468 1468 1469 1471 1473 1475 1477 1478 1480 1483 1485
1512 1511 1510 1508 1507 1505 1503 1500 1498 1496 1494 1493 1491 1489 1487 1484 1482 1480 1478 1476 1474 1472 1471 1470 1468 1467 1466 1465 1464 1464 1463 1463 1463 1464 1464 1465 1467 1469 1471 1473 1475 1477 1479
1511 1510 1508 1507 1505 1503 1501 1499 1497 1495 1493 1491 1489 1486 1484 1482 1480 1477 1475 1473 1471 1469 1468 1467 1466 1464 1463 1462 1461 1460 1460 1459 1459 1459 1460 1460 1462 1463 1465 1467 1469 1471 1473
1509 1508 1507 1505 1504 1502 1500 1497 1495 1493 1491 1489 1487 1484 1482 1480 1477 1475 1473 1470 1468 1466 1465 1464 1463 1462 1461 1460 1459 1457 1457 1456 1456 1455 1455 1456 1456 1458 1460 1462 1464 1466 1467
1508 1507 1506 1504 1502 1500 1498 1496 1494 1492 1489 1487 1485 1482 1480 1477 1475 1473 1471 1468 1466 1464 1463 1462 1460 1459 1458 1457 1455 1454 1453 1453 1452 1452 1451 1451 1452 1453 1455 1456 1458 1460 1461
1506 1505 1504 1502 1500 1498 1496 1495 1492 1490 1488 1486 1483 1481 1478 1476 1473 1471 1469 1466 1464 1463 1461 1460 1458 1457 1455 1454 1453 1451 1450 1449 1448 1448 1447 1447 1448 1448 1450 1451 1453 1455 1457
1504 1503 1502 1501 1499 1497 1495 1493 1491 1489 1486 1484 1482 1479 1477 1474 1472 1470 1467 1465 1463 1461 1460 1458 1456 1455 1453 1452 1450 1448 1447 1446 1445 1444 1443 1442 1443 1443 1444 1446 1448 1450 1451
1502 1501 1500 1498 1497 1495 1493 1491 1489 1487 1484 1482 1480 1477 1475 1473 1470 1468 1466 1463 1461 1459 1458 1456 1454 1453 1451 1450 1448 1446 1444 1443 1442 1440 1439 1438 1438 1438 1439 1440 1442 1444 1445
1499 1498 1497 1495 1494 1492 1490 1488 1486 1484 1482 1480 1477 1475 1473 1471 1469 1467 1464 1462 1459 1457 1455 1454 1452 1451 1449 1447 1445 1443 1442 1440 1438 1437 1435 1434 1434 1434 1435 1435 1437 1439 1441
1496 1494 1493 1492 1490 1489 1487 1485 1483 1481 1479 1477 1475 1473 1471 1469 1467 1464 1463 1460 1458 1455 1453 1452 1450 1449 1447 1445 1443 1441 1439 1437 1436 1434 1432 1431 1431 1430 1431 1432 1433 1434 1436
1493 1491 1489 1487 1486 1484 1483 1481 1479 1477 1475 1473 1472 1470 1468 1467 1465 1462 1460 1458 1456 1453 1451 1450 1448 1447 1445 1443 1441 1439 1437 1435 1434 1432 1430 1429 1428 1428 1428 1428 1429 1431 1433
1489 1487 1486 1484 1482 1480 1478 1477 1475 1473 1472 1470 1469 1467 1465 1464 1462 1459 1457 1455 1453 1451 1449 1447 1446 1444 1443 1441 1439 1438 1436 1434 1432 1431 1429 1428 1427 1426 1426 1426 1427 1428 1430
1485 1483 1482 1480 1478 1476 1474 1473 1471 1469 1468 1466 1465 1463 1461 1459 1458 1457 1455 1453 1451 1448 1446 1444 1443 1442 1440 1439 1438 1436 1434 1433 1431 1429 1428 1427 1426 1425 1424 1425 1425 1426 1427
1481 1479 1477 1475 1473 1471 1469 1467 1466 1465 1463 1462 1460 1459 1457 1455 1453 1452 1451 1449 1447 1445 1443 1441 1440 1439 1438 1437 1436 1434 1433 1431 1430 1428 1427 1425 1424 1424 1423 1423 1423 1424 1425
1479 1476 1474 1471 1469 1467 1465 1463 1461 1459 1458 1456 1455 1454 1452 1450 1449 1447 1446 1444 1443 1441 1439 1437 1436 1435 1434 1434 1433 1432 1431 1429 1428 1427 1426 1424 1423 1423 1422 1422 1422 1423 1424
1477 1474 1471 1469 1466 1464 1462 1460 1458 1455 1453 1451 1450 1449 1447 1445 1444 1442 1441 1439 1438 1436 1435 1434 1432 1432 1431 1430 1430 1429 1428 1427 1426 1425 1424 1423 1422 1421 1421 1421 1421 1422 1422
1475 1473 1470 1467 1465 1462 1460 1457 1455 1453 1451 1448 1446 1444 1442 1440 1439 1438 1436 1435 1433 1432 1431 1430 1429 1428 1427 1427 1426 1426 1425 1424 1424 1423 1422 1421 1421 1421 1420 1420 1420 1421 1422
1473 1472 1469 1466 1464 1461 1458 1455 1453 1451 1448 1446 1444 1441 1438 1436 1434 1434 1432 1431 1429 1428 1427 1426 1425 1424 1423 1423 1422 1421 1421 1421 1420 1420 1419 1419 1419 1419 1419 1419 1419 1420 1421
1473 1471 1468 1466 1463 1460 1457 1455 1453 1450 1447 1444 1442 1440 1437 1434 1432 1430 1429 1427 1425 1423 1422 1421 1420 1419 1418 1418 1417 1417 1416 1416 1416 1416 1416 1416 1416 1416 1417 1417 1418 1419 1420
1472 1470 1468 1466 1463 1460 1458 1455 1452 1449 1446 1443 1440 1437 1434 1432 1429 1427 1424 1422 1421 1419 1418 1416 1414 1414 1413 1412 1412 1411 1410 1410 1411 1411 1411 1412 1412 1413 1413 1414 1415 1416 1417
1471 1469 1467 1465 1463 1460 1458 1455 1452 1449 1446 1443 1440 1436 1433 1430 1427 1425 1422 1419 1416 1414 1412 1410 1409 1408 1407 1406 1406 1405 1405 1404 1405 1405 1406 1406 1407 1408 1409 1410 1411 1412 1414
1470 1468 1467 1464 1462 1460 1457 1454 1451 1449 1445 1442 1439 1436 1432 1429 1426 1423 1419 1416 1412 1409 1407 1405 1403 1401 1400 1399 1399 1398 1398 1398 1399 1399 1399 1400 1400 1401 1403 1404 1406 1407 1409
1468 1467 1465 1463 1461 1458 1456 1453 1450 1447 1444 1441 1438 1434 1431 1427 1423 1420 1416 1413 1409 1405 1402 1399 1397 1394 1392 1390 1389 1389 1389 1390 1391 1391 1392 1392 1393 1394 1396 1397 1399 1401 1403
1466 1465 1463 1461 1459 1456 1454 1451 1448 1445 1442 1438 1435 1432 1428 1424 1421 1417 1413 1409 1405 1401 1398 1394 1391 1388 1385 1383 1380 1379 1379 1379 1380 1382 1383 1384 1385 1385 1387 1389 1392 1394 1397